Regional Weather Roundup
Issued by NWS

Current Version | Previous Version | Graphics & Text | Print | Product List | Glossary On
Versions: 1 2 3 4 5 6 7 8 9 10 11 12 13 14 15 16 17 18 19 20 21 22 23 24 25 26 27 28 29 30 31 32 33 34 35 36 37 38 39 40 41 42 43 44 45 46 47 48 49 50
458
ASHW40 PHFO 241412
RWRHI

WEATHER ROUNDUP FOR HAWAII
NATIONAL WEATHER SERVICE HONOLULU HI
400 AM HST FRI MAR 24 2017

THIS IS AN AUTOMATED REPORT THAT HAS NOT BEEN QUALITY CONTROLLED.

NOTE..."FAIR" INDICATES FEW OR NO CLOUDS BELOW 12,000 FEET WITH NO
SIGNIFICANT WEATHER AND/OR OBSTRUCTIONS TO VISIBILITY.

* - THESE SITES REPORT LIMITED FIELDS

HIZ001>004-241500-
KAUAI-NIIHAU-

CITY           SKY/WX    TMP DP  RH WIND       PRES   REMARKS
LIHUE APT      MOCLDY    70  67  90 W7        30.14S
PORT ALLEN*      N/A     66 N/A N/A NE8         N/A
POIPU*           N/A     66 N/A N/A N2          N/A
PRINCEVILLE*     N/A     66 N/A N/A S5          N/A
KOKOLE POINT*  NOT AVBL
MOLOAA DAIRY*    N/A     72  68  88 E3          N/A
WAIMEA HTS*    NOT AVBL
PUU OPAE*      NOT AVBL
PUU LUA*       NOT AVBL
MAKAHA RIDGE*  NOT AVBL
$$

HIZ005>011-241500-
OAHU-

CITY           SKY/WX    TMP DP  RH WIND       PRES   REMARKS
HONOLULU       PTCLDY    73  67  81 W6        30.11S
KALAELOA       CLEAR     70  64  81 NE3       30.13R
KANEOHE MCB    NOT AVBL
WHEELER FIELD  PTCLDY    67  65  94 W6        30.11F
BELLOWS*       NOT AVBL
KAHUKU*        NOT AVBL
WHEELER*       NOT AVBL
WAIANAE HARBOR NOT AVBL
DILLINGHAM*      N/A     88  88 100 CALM        N/A  HX 120
KAHUKU TRN*      N/A     72  70  94 W1G8        N/A
KAWAILOA*        N/A     66  64  94 E1          N/A
KII*             N/A     75  70  83 NE8         N/A
MAKUA RANGE*     N/A     70  64  83 W9          N/A
OAHU FOREST NW NOT AVBL
SCHOFIELD BRK*   N/A     66  64  94 MISG        N/A
SCHOFIELD S*   NOT AVBL
WAIANAE VLY*   NOT AVBL
KUAOKALA*      NOT AVBL
HONOULIUULI*   NOT AVBL
MOKUOLOE IS*   NOT AVBL
PALEHUA*       NOT AVBL
WAIAWA PHB*    NOT AVBL
$$

HIZ012>013-241500-
MOLOKAI-

CITY           SKY/WX    TMP DP  RH WIND       PRES   REMARKS
MOLOKAI AIRPT  CLOUDY    70  69  97 NW7       30.12S
KALAUPAPA      NOT AVBL
MAKAPULAPAI*   NOT AVBL
MOLOKAI 1*     NOT AVBL
PUU ALII*      NOT AVBL
$$

HIZ016-241500-
KAHOOLAWE-

CITY           SKY/WX    TMP DP  RH WIND       PRES   REMARKS
KAHOOLAWE*     NOT AVBL
HAKIOAWA*      NOT AVBL
HONOKANAIA*      N/A     75  68  78 NE10G23   30.04S
KANELOA*         N/A     73  70  88 NE17G31   30.15F
KEALIALALO*    NOT AVBL
LUA MAKIKA*    NOT AVBL
$$

HIZ014>015-241500-
LANAI-

CITY           SKY/WX    TMP DP  RH WIND       PRES   REMARKS
LANAI CITY     MOCLDY    68  66  93 N10       30.16S
LANAI 1*       NOT AVBL
$$

HIZ017>028-241500-
MAUI-

CITY           SKY/WX    TMP DP  RH WIND       PRES   REMARKS
KAHULUI        CLEAR     68  65  90 S7        30.10R
KAPALUA-W MAUI NOT AVBL
HANA AIRPORT   CLOUDY    73  72  94 CALM      30.14S
HANA*            N/A     73 N/A N/A SE6G13      N/A
HALEAKALA SUMM   N/A     43  43 100 E14         N/A
MAALAEA BAY*   NOT AVBL
HALEAKALA*     NOT AVBL
KAUPO GAP*     NOT AVBL
KULA 1*          N/A     54  42  63 NE5         N/A
$$

HIZ023>026-241500-
BIG ISLAND OF HAWAII COAST AND LOWER SLOPES-

CITY           SKY/WX    TMP DP  RH WIND       PRES   REMARKS
KAILUA KONA    PTCLDY    74  67  78 E5        30.08R
HILO           LGT RAIN  71  70  96 SW5       30.12S FOG
HONOKAA*         N/A     64 N/A N/A VRB1        N/A
KAWAIHAE MWT*    N/A     75 N/A N/A NE5         N/A
KAWAIHAE*      NOT AVBL
SOUTH POINT*     N/A     70 N/A N/A N12G17      N/A
UPOLU AIRPORT* NOT AVBL
KAMUELA*       SUNNY     57  54  88 SE3       30.20S
HAKALAU*         N/A     54  54  99 E3G10       N/A
KALOKO-HONOKO* NOT AVBL
PALI 2*          N/A     64  64 100 SW5         N/A
KEALAKOMO*       N/A     73  70  88 NE6G16      N/A
KAUPULEHU*     NOT AVBL
KAPAPALA*        N/A     67  67 100 NE2G9       N/A
LOWER KAHUKU*  NOT AVBL
PUHE CS*       NOT AVBL
PUHO CS*       NOT AVBL
PTA KEAMUKU*     N/A     55  52  88 CALM        N/A
WAIKOLOA*      NOT AVBL
$$

HIZ027>028-241500-
BIG ISLAND OF HAWAII INTERIOR AND SUMMMITS-

CITY           SKY/WX    TMP DP  RH WIND       PRES   REMARKS
BRADSHAW FIELD MOCLDY    57  53  84 SE10      30.41R
MK VISITOR CEN   N/A     46  45  93 SE6         N/A
MAUNA KEA*       N/A     36  34  93 E10         N/A  WCI  28
MAUNA LOA*     NOT AVBL
MAUNA LOA 1*   NOT AVBL
PTA KIPUKA*      N/A     50  50 100 E3          N/A
PTA RANGE 17*    N/A     55  48  76 W3G18       N/A
PTA WEST*        N/A     55  52  88 SE9         N/A
NENE CABIN*    NOT AVBL
AHUMOA*        NOT AVBL
PTA PORTABLE*  NOT AVBL
PUU MALI*        N/A     61  48  63 SE10G18     N/A
$$

HIC003-241500-
NORTHWEST ISLANDS-

CITY           SKY/WX    TMP DP  RH WIND       PRES   REMARKS
MIDWAY ISLAND  CLOUDY    68  55  64 W14       29.97F
MIDWAY NOS*    NOT AVBL
FRENCH FRIGATE NOT AVBL
$$

PHZ110>124-180-241500-
BUOY REPORTS

STATION/POSITION TIME  TEMP    WIND        PRES    WAVE   SWELL
                       AIR SEA DIR/SP/G            HT/PER HT/DIR
                 (UTC) (F)     (DEG/KT/KT) (MB)    (FT/S) (FT/D)
BUOY 51001       1350   74 76  140/  6/  8 1019.5F   5/11   5/310
BUOY 51101       1350   75 76  160/  6/  8 1020.2R   6/11   7/310
BUOY 51100       NOT AVBL
BUOY 51002       1350   77 78   80/ 14/ 17 1017.6F   7/13   5/310
BUOY 51003       1350   77 78   60/ 12/ 16 1018.6F   5/12   5/280
BUOY 51004       1250      77  100/ 16/ 17 1018.2    7/ 8   5/100
BARBERS PT BUOY  NOT AVBL
WAIMEA BAY BUOY  1302      75                N/A     4/13   3/330
KAILUA BAY BUOY  1334      76                N/A     4/ 7   2/350
LANAI BUOY       1345      78                N/A     4/13   2/270
BARBERS PT 2     NOT AVBL
PAUWELA MAUI     1339      77                N/A     5/13   2/320
HILO             1342      77                N/A     6/ 9   2/340
KANEOHE BAY BUOY 1355      75                N/A     4/ 7   2/ 10
HANALEI KAUAI    1352      78                N/A     5/12   3/330
KAHULUI HARBOR   1336   71 78  140/  2/  4 1019.2R
HONOLULU HARBOR  1336   76 78   50/  2/  3 1020.3F
KILO NALU        NOT AVBL
HILO HARBOR      1336   72 76  220/  6/ 10 1019.7S
MOKUOLOE         1336   75 79   CALM  /  2 1019.8S
NAWILIWILI       1348   70     270/  5/  6 1020.1F
WHOTS BUOY       NOT AVBL
BUOY 51028       NOT AVBL
$$

......................KEY........................................
  SKY/WX - SKY CONDITIONS/PRESENT WEATHER
  TMP    - TEMPERATURE IN FAHRENHEIT
  DWPT   - DEWPOINT IN FAHRENHEIT
  RH     - RELATIVE HUMIDITY IN PERCENT
  WIND   - DIRECTION AND SPEED /MPH FOR ISLANDS...KTS FOR BUOYS/
  PRES   - MEAN SEA LEVEL PRESSURE IN INCHES OF HG
  VSB    - VISIBILITY IN MILES
  HX     - HEAT INDEX
  WCI    - WIND CHILL INDEX
  VRB    - VARIABLE WIND DIRECTION
  N/A    - NOT AVAILABLE




USA.gov is the U.S. government's official web portal to all federal, state and local government web resources and services.